Weather History for San Antonio Stinson, TX

Change the Weather History Date:

Sunday, January 23, 2011

  Actual Average Record
Temperature  
Mean Temperature 48 °F -  
Max Temperature 59 °F 62 °F 81 °F (2000)
Min Temperature 36 °F 42 °F 30 °F (2014)
Degree Days  
Heating Degree Days 18    
Moisture  
Dew Point 42 °F    
Average Humidity 71    
Maximum Humidity 86    
Minimum Humidity 47    
Precipitation  
Precipitation 0.00 in - - ()
Sea Level Pressure  
Sea Level Pressure 29.98 in    
Wind  
Wind Speed 4 mph (NNE)    
Max Wind Speed 10 mph    
Max Gust Speed 18 mph    
Visibility 10 miles    
Events      
Averages and records for this station are not official NWS values.
T = Trace of Precipitation, MM = Missing Value Source: NWS Daily Summary

Daily Weather History Graph

Daily Weather History Graph

Search for Another Location

Airport:

Trip Planner

Search our weather history database for the weather conditions in past years. The results will help you decide how hot, cold, wet, or windy it might be!

Date:

Astronomy

Jan. 23, 2011 Rise Set
Actual Time 7:27 AM CST 6:04 PM CST
Civil Twilight 7:02 AM CST 6:29 PM CST
Nautical Twilight 6:33 AM CST 6:58 PM CST
Astronomical Twilight 6:04 AM CST 7:26 PM CST
Moon 10:37 PM CST (1/23) 9:50 AM CST (1/23)
Length of Visible Light 11h 27m
Length of Day
10h 37m
Waning Gibbous, 80% of the Moon is Illuminated
Jan 23
Waning Gibbous
Jan 26
Last Quarter
Feb 2
New
Feb 11
First Quarter
Feb 18
Full

Hourly Weather History & Observations

Time (CST) Temp. Windchill Dew Point Humidity Pressure Visibility Wind Dir Wind Speed Gust Speed Precip Events Conditions
12:53 AM 41.0 °F - 33.1 °F 73% 29.92 in 10.0 mi Calm Calm - N/A   Clear
1:53 AM 36.0 °F - 30.9 °F 82% 29.93 in 10.0 mi Calm Calm - N/A   Clear
2:53 AM 37.9 °F - 33.1 °F 83% 29.92 in 10.0 mi Calm Calm - N/A   Clear
3:53 AM 37.0 °F - 32.0 °F 82% 29.91 in 10.0 mi Calm Calm - N/A   Clear
4:53 AM 37.9 °F - 34.0 °F 86% 29.92 in 10.0 mi Calm Calm - N/A   Clear
5:53 AM 39.0 °F - 35.1 °F 86% 29.91 in 10.0 mi Calm Calm - N/A   Mostly Cloudy
6:53 AM 43.0 °F 41.3 °F 37.9 °F 82% 29.93 in 10.0 mi NNE 3.5 mph - N/A   Overcast
7:53 AM 46.0 °F - 41.0 °F 83% 29.94 in 9.0 mi Calm Calm - N/A   Overcast
8:53 AM 48.9 °F - 43.0 °F 80% 29.96 in 10.0 mi NNE 3.5 mph - N/A   Overcast
9:53 AM 54.0 °F - 45.0 °F 72% 29.99 in 10.0 mi NNE 6.9 mph - N/A   Overcast
10:53 AM 55.9 °F - 46.0 °F 69% 30.01 in 10.0 mi NNE 9.2 mph - N/A   Overcast
11:12 AM 55.4 °F - 46.4 °F 72% 30.01 in 10.0 mi NE 8.1 mph - N/A   Overcast
11:53 AM 57.0 °F - 46.9 °F 69% 30.01 in 10.0 mi NNE 8.1 mph - N/A   Overcast
12:53 PM 57.9 °F - 46.9 °F 67% 29.98 in 10.0 mi NNE 6.9 mph - N/A   Overcast
1:53 PM 57.9 °F - 46.9 °F 67% 29.97 in 10.0 mi North 8.1 mph - N/A   Overcast
2:53 PM 59.0 °F - 48.0 °F 67% 29.97 in 10.0 mi NNE 8.1 mph - N/A   Overcast
3:08 PM 59.0 °F - 48.2 °F 67% 29.97 in 10.0 mi North 6.9 mph - N/A   Overcast
3:53 PM 59.0 °F - 48.9 °F 69% 29.99 in 10.0 mi North 10.4 mph - N/A   Overcast
4:53 PM 57.9 °F - 48.0 °F 70% 30.00 in 10.0 mi NE 5.8 mph - N/A   Overcast
5:53 PM 57.9 °F - 48.9 °F 72% 30.01 in 10.0 mi ENE 4.6 mph - N/A   Overcast
6:53 PM 57.0 °F - 48.9 °F 74% 30.02 in 10.0 mi NE 4.6 mph - N/A   Overcast
7:53 PM 55.9 °F - 48.0 °F 75% 30.04 in 10.0 mi NNE 8.1 mph - N/A   Mostly Cloudy
8:53 PM 55.0 °F - 39.9 °F 57% 30.06 in 10.0 mi NNE 10.4 mph - N/A   Clear
9:53 PM 54.0 °F - 36.0 °F 51% 30.07 in 10.0 mi NNE 6.9 mph - N/A   Overcast
10:53 PM 53.1 °F - 33.1 °F 47% 30.08 in 10.0 mi NNE 10.4 mph 18.4 mph N/A   Overcast
11:53 PM 52.0 °F - 33.1 °F 49% 30.08 in 10.0 mi NNE 9.2 mph - N/A   Overcast